This is the latest recevied weather packets stored in our database for station/object K8JCL-13. If no packets are shown the sender has not sent any weather packets the latest 10 day(s).
| Time | Temp. | Humidity | Pressure | Rain* | Wind** | Luminosity | Snow |
|---|---|---|---|---|---|---|---|
| 1777662129 | 9.44° C | 76% | 1015.4 hPa | 0 mm | - | 168 W/m² | - |
| 1777661824 | 8.89° C | 77% | 1015.4 hPa | 0 mm | - | 269 W/m² | - |
| 1777661520 | 8.89° C | 77% | 1015.4 hPa | 0 mm | - | 216 W/m² | - |
| 1777661210 | 8.89° C | 77% | 1015.5 hPa | 0 mm | - | 207 W/m² | - |
| 1777660905 | 8.89° C | 77% | 1015.1 hPa | 0 mm | - | 208 W/m² | - |
| 1777660602 | 10° C | 76% | 1015.3 hPa | 0 mm | - | 168 W/m² | - |
| 1777660298 | 10° C | 75% | 1015.2 hPa | 0 mm | - | 489 W/m² | - |
| 1777659995 | 10.56° C | 78% | 1015.1 hPa | 0 mm | - | 760 W/m² | - |
| 1777659692 | 10° C | 78% | 1014.8 hPa | 0 mm | - | 702 W/m² | - |
| 1777659389 | 10° C | 79% | 1014.9 hPa | 0 mm | - | 844 W/m² | - |
| 1777659086 | 10.56° C | 77% | 1014.9 hPa | 0 mm | - | 326 W/m² | - |
| 1777658784 | 10° C | 75% | 1014.8 hPa | 0 mm | - | 505 W/m² | - |
| 1777658480 | 10.56° C | 76% | 1014.4 hPa | 0 mm | - | 398 W/m² | - |
| 1777658177 | 10° C | 77% | 1014.5 hPa | 0 mm | - | 353 W/m² | - |
| 1777657874 | 10° C | 76% | 1014.1 hPa | 0 mm | - | 599 W/m² | - |
| 1777657570 | 10.56° C | 74% | 1014 hPa | 0 mm | - | 215 W/m² | - |
| 1777657268 | 10.56° C | 75% | 1014.2 hPa | 0 mm | - | 749 W/m² | - |
| 1777656965 | 10° C | 77% | 1014.5 hPa | 0 mm | - | 772 W/m² | - |
| 1777656662 | 10.56° C | 78% | 1014.2 hPa | 0 mm | - | 808 W/m² | - |
| 1777656357 | 10.56° C | 78% | 1014.1 hPa | 0 mm | - | 212 W/m² | - |
| 1777656053 | 10.56° C | 75% | 1014 hPa | 0 mm | - | 310 W/m² | - |
| 1777655749 | 10° C | 79% | 1014 hPa | 0 mm | - | 290 W/m² | - |
| 1777655446 | 10.56° C | 80% | 1014 hPa | 0 mm | - | 515 W/m² | - |
| 1777655143 | 11.11° C | 77% | 1013.9 hPa | 0 mm | - | 192 W/m² | - |
| 1777654840 | 11.11° C | 76% | 1013.8 hPa | 0 mm | - | 217 W/m² | - |
* Rain latest hour (hover to see other rain measurements)
** Current wind speed in m/s (hover to see current wind gust speed)